Quillayute, WA
on Sunday, November 18, 2012

Sunday
Previous Day Next Day
Daily Summary
 ActualAverageRecord
Temperature
Mean Temperature °F 44°F  
Max Temperature 51°F 50°F 61°F (2001)
Min Temperature 44°F 38°F 21°F (2000)
Degree Days
Heating Degree Days 17 21  
Month to date heating degree days 355  
Since 1 July heating degree days 1445  
Cooling Degree Days 0 0  
Month to date cooling degree days 0  
Year to date cooling degree days 19  
Moisture
Dew Point 47°F   
Average Humidity 97    
Maximum Humidity 100    
Minimum Humidity 44    
Precipitation
Precipitation 1.31 in 0.54 in 4.38 in (2002)
Month to date precipitation 9.16  
Year to date precipitation 80.19  
Wind
Wind Speed 10 mph   
Max Wind Speed 24 mph   
Max Gust Speed 47 mph   
Visibility 3 miles   
Events Rain   

Key: T is trace of precipitation, MM is missing value
Source: NWS Daily Summary
Time(PST)TemperatureDew PointHumidity Pressure Visibility Wind DirectionWind SpeedGust SpeedPrecipitationEvents Conditions
12:53 AM 46.9°F - N/A% 29.61 in 6.0 miles South 15.0 mph 27.6 mph 0.00 in   Haze
1:53 AM 46.9°F 46.9°F 100% 29.61 in 7.0 miles South 8.1 mph 17.3 mph N/A   Mostly Cloudy
2:53 AM 46.0°F 46.0°F 100% 29.63 in 3.0 miles South 9.2 mph - 0.00 in Rain Light Rain
3:39 AM 44.6°F 44.6°F 100% 29.62 in 4.0 miles SE 4.6 mph - 0.02 in Rain Light Rain
3:50 AM 44.6°F 44.6°F 100% 29.62 in 6.0 miles SE 5.8 mph - 0.02 in Rain Light Rain
3:53 AM 44.1°F 44.1°F 100% 29.62 in 6.0 miles SE 4.6 mph - 0.02 in Rain Light Rain
4:53 AM 44.1°F - N/A% 29.62 in 5.0 miles SE 3.5 mph - 0.00 in Rain Light Rain
5:01 AM 44.6°F - N/A% 29.62 in 2.5 miles SSE 4.6 mph - 0.02 in Rain Rain
5:06 AM 44.6°F - N/A% 29.63 in 1.8 miles SSE 6.9 mph - 0.03 in Rain Light Rain
5:10 AM 44.6°F - N/A% 29.63 in 1.2 miles SSE 8.1 mph - 0.07 in Rain Heavy Rain
5:20 AM 44.6°F - N/A% 29.62 in 2.0 miles SSE 5.8 mph - N/A Rain Light Rain
5:26 AM 44.6°F - N/A% 29.62 in 4.0 miles SSE 6.9 mph - 0.12 in Rain Light Rain
5:53 AM 44.6°F - N/A% 29.62 in 6.0 miles SE 4.6 mph - N/A Rain Light Rain
6:14 AM 44.6°F - N/A% 29.62 in 2.5 miles SE 5.8 mph - 0.01 in Rain Light Rain
6:21 AM 44.6°F - N/A% 29.61 in 2.5 miles SE 6.9 mph - 0.02 in Rain Light Rain
6:30 AM 44.6°F - N/A% 29.61 in 2.0 miles ESE 4.6 mph - 0.05 in Rain Light Rain
6:33 AM 44.6°F - N/A% 29.61 in 3.0 miles SE 3.5 mph - 0.05 in Rain Light Rain
6:38 AM 44.6°F - N/A% 29.61 in 5.0 miles SE 6.9 mph - 0.05 in Rain Light Rain
6:53 AM 45.0°F - N/A% 29.61 in 3.0 miles Variable 4.6 mph - 0.06 in Rain Light Rain
7:15 AM 44.6°F - N/A% 29.61 in 2.0 miles SSE 8.1 mph - 0.02 in Rain Light Rain
7:29 AM 44.6°F - N/A% 29.61 in 6.0 miles SSE 11.5 mph 18.4 mph 0.04 in   Haze
7:53 AM 45.0°F - N/A% 29.61 in 5.0 miles SSE 10.4 mph - 0.05 in Rain Light Rain
8:24 AM 44.6°F - N/A% 29.62 in 1.8 miles SSE 8.1 mph - 0.02 in Rain Rain
8:34 AM 44.6°F - N/A% 29.62 in 3.0 miles SSE 8.1 mph - 0.03 in Rain Light Rain
8:53 AM 45.0°F - N/A% 29.63 in 2.5 miles SSE 8.1 mph 17.3 mph 0.03 in Rain Light Rain
9:00 AM 44.6°F - N/A% 29.62 in 5.0 miles SE 9.2 mph - 0.00 in   Haze
9:21 AM 44.6°F - N/A% 29.62 in 4.0 miles SE 6.9 mph - 0.00 in   Haze
9:25 AM 46.4°F - N/A% 29.61 in 1.5 miles SE 9.2 mph 17.3 mph 0.00 in Rain Light Rain
9:29 AM 44.6°F - N/A% 29.61 in 0.8 miles SSE 5.8 mph 17.3 mph 0.03 in Rain Rain
9:36 AM 44.6°F - N/A% 29.61 in 1.0 miles Variable 6.9 mph - 0.06 in Rain Rain
9:39 AM 46.4°F - N/A% 29.61 in 1.5 miles SE 8.1 mph - 0.07 in Rain Light Rain
9:43 AM 46.4°F - N/A% 29.61 in 3.0 miles SE 10.4 mph 17.3 mph 0.07 in Rain Light Rain
9:53 AM 46.9°F - N/A% 29.61 in 5.0 miles SE 6.9 mph - 0.07 in   Haze
10:00 AM 48.2°F - N/A% 29.60 in 5.0 miles SE 8.1 mph - N/A   Haze
10:33 AM 46.4°F - N/A% 29.60 in 5.0 miles SE 10.4 mph 20.7 mph N/A   Haze
10:53 AM 46.9°F - N/A% 29.61 in 6.0 miles SE 12.7 mph 20.7 mph N/A   Haze
11:29 AM 46.4°F - N/A% 29.58 in 2.5 miles SSE 13.8 mph 23.0 mph 0.00 in Rain Light Rain
11:37 AM 46.4°F - N/A% 29.58 in 3.0 miles SSE 15.0 mph 25.3 mph 0.01 in Rain Light Rain
11:53 AM 46.9°F - N/A% 29.57 in 2.0 miles SSE 10.4 mph 23.0 mph 0.01 in Rain Light Rain
12:03 PM 46.4°F - N/A% 29.57 in 1.8 miles SSE 11.5 mph 25.3 mph 0.01 in Rain Rain
12:17 PM 46.4°F - N/A% 29.56 in 2.5 miles SSE 10.4 mph 18.4 mph 0.02 in Rain Light Rain
12:38 PM 46.4°F 46.4°F 100% 29.54 in 3.0 miles SE 11.5 mph 19.6 mph 0.03 in Rain Light Rain
12:53 PM 46.9°F 46.9°F 100% 29.55 in 2.0 miles SSE 11.5 mph 25.3 mph 0.03 in Rain Light Rain
1:03 PM 46.4°F - N/A% 29.53 in 1.8 miles SSE 13.8 mph 20.7 mph 0.01 in Rain Light Rain
1:18 PM 48.2°F - N/A% 29.52 in 2.5 miles SE 10.4 mph 27.6 mph 0.01 in Rain Light Rain
1:26 PM 48.2°F - N/A% 29.52 in 5.0 miles SE 9.2 mph 20.7 mph 0.01 in   Haze
1:34 PM 46.4°F - N/A% 29.51 in 1.8 miles SE 17.3 mph 25.3 mph 0.01 in Rain Light Rain
1:50 PM 46.4°F - N/A% 29.50 in 2.0 miles SE 13.8 mph 21.9 mph 0.02 in Rain Light Rain
1:53 PM 46.9°F - N/A% 29.50 in 1.8 miles SE 12.7 mph 26.5 mph 0.03 in Rain Light Rain
2:09 PM 46.4°F - N/A% 29.49 in 2.0 miles SE 15.0 mph 24.2 mph 0.01 in Rain Light Rain
2:15 PM 46.4°F - N/A% 29.48 in 1.8 miles SE 13.8 mph 24.2 mph 0.02 in Rain Light Rain
2:40 PM 46.4°F 46.4°F 100% 29.46 in 2.0 miles SE 12.7 mph 24.2 mph 0.07 in Rain Light Rain
2:53 PM 46.9°F - N/A% 29.46 in 1.8 miles SE 13.8 mph 31.1 mph 0.08 in Rain Light Rain
3:06 PM 46.4°F - N/A% 29.44 in 2.0 miles SE 13.8 mph 25.3 mph 0.02 in Rain Light Rain
3:16 PM 46.4°F - N/A% 29.44 in 1.8 miles SE 13.8 mph 25.3 mph 0.04 in Rain Light Rain
3:53 PM 46.9°F 46.9°F 100% 29.42 in 1.2 miles SE 18.4 mph 33.4 mph 0.13 in Rain Rain
4:08 PM 46.4°F 46.4°F 100% 29.40 in 1.8 miles SSE 19.6 mph 29.9 mph 0.05 in Rain Rain
4:17 PM 46.4°F 46.4°F 100% 29.39 in 1.8 miles SE 13.8 mph 29.9 mph 0.08 in Rain Rain
4:53 PM 46.9°F - N/A% 29.35 in 1.8 miles SE 18.4 mph 29.9 mph 0.23 in Rain Rain
5:10 PM 46.4°F - N/A% 29.33 in 2.0 miles SE 16.1 mph 27.6 mph 0.06 in Rain Rain
5:17 PM 46.4°F - N/A% 29.33 in 1.8 miles SE 13.8 mph 31.1 mph 0.09 in Rain Rain
5:27 PM 46.4°F - N/A% 29.32 in 1.5 miles SE 16.1 mph 34.5 mph 0.16 in Rain Rain
5:50 PM 46.4°F 46.4°F 100% 29.29 in 1.0 miles ESE 9.2 mph 28.8 mph 0.28 in Rain Heavy Rain
5:53 PM 46.4°F 46.4°F 100% 29.29 in 1.0 miles ESE 8.1 mph 28.8 mph N/A Rain Heavy Rain
6:24 PM 48.2°F 46.4°F 93% 29.30 in 1.2 miles South 16.1 mph 28.8 mph 0.13 in Rain Light Rain
6:27 PM 48.2°F 46.4°F 93% 29.32 in 2.0 miles South 16.1 mph 33.4 mph 0.13 in Rain Light Rain
6:35 PM 48.2°F 46.4°F 93% 29.33 in 6.0 miles South 20.7 mph 47.2 mph 0.13 in Rain Light Rain
6:53 PM 50.0°F - N/A% 29.38 in 5.0 miles South 13.8 mph 34.5 mph 0.13 in   Haze
6:59 PM 50.0°F - N/A% 29.38 in 4.0 miles South 12.7 mph 23.0 mph N/A   Haze
7:53 PM 50.0°F 50.0°F 100% 29.42 in 6.0 miles SSW 10.4 mph 19.6 mph N/A   Overcast
8:53 PM 50.0°F 50.0°F 100% 29.43 in 5.0 miles South 8.1 mph - 0.00 in   Overcast
9:28 PM 50.0°F 50.0°F 100% 29.43 in 5.0 miles South 10.4 mph - 0.00 in Rain Light Rain
9:53 PM 51.1°F 51.1°F 100% 29.42 in 4.0 miles SSE 10.4 mph 17.3 mph 0.00 in Rain Light Rain
10:02 PM 51.8°F 51.8°F 100% 29.42 in 4.0 miles South 8.1 mph 16.1 mph 0.00 in Rain Light Rain
10:14 PM 51.8°F 51.8°F 100% 29.42 in 2.5 miles SSE 10.4 mph 23.0 mph 0.01 in Rain Light Rain
10:42 PM 51.8°F 51.8°F 100% 29.41 in 3.0 miles SSE 9.2 mph 19.6 mph 0.01 in Rain Light Rain
10:53 PM 50.0°F 50.0°F 100% 29.42 in 3.0 miles South 8.1 mph 19.6 mph 0.02 in Rain Light Rain
11:02 PM 51.8°F - N/A% 29.41 in 2.0 miles South 8.1 mph 24.2 mph 0.01 in Rain Light Rain
11:07 PM 51.8°F - N/A% 29.41 in 2.5 miles Variable 6.9 mph 23.0 mph 0.01 in Rain Light Rain
11:17 PM 51.8°F - N/A% 29.41 in 4.0 miles South 9.2 mph 18.4 mph 0.01 in Rain Light Rain
11:30 PM 51.8°F - N/A% 29.42 in 5.0 miles South 11.5 mph 25.3 mph 0.01 in   Haze
11:38 PM 51.8°F - N/A% 29.42 in 5.0 miles South 11.5 mph 19.6 mph 0.01 in   Haze
11:53 PM 51.1°F - N/A% 29.43 in 6.0 miles South 9.2 mph 17.3 mph 0.01 in   Haze
Moon Phase
Nov. 18 Nov. 20 Nov. 28 Dec. 06 Dec. 13
Sunrise:07:29 AM (PST) Moon Rise:11:55 AM (PST)
Sunset:04:36 PM (PST) Moon Set:10:10 PM (PST)

Copyright © 2014 The Weather Underground, Inc.